DAL214 KDTW-KSRQ

Flight info

Callsign DAL214
Flight time N/A
Altitude 38000
Route CLVIN3 STAZE VXV THRSR HONID BANGZ2
Aircraft B739/M-SDE2E3FGHIRWXY/LB1

Departure

Time N/A
Airport Detroit Metropolitan Wayne County Airport (KDTW)

Arrival

Time 2026-04-25 21:02
Airport Sarasota Bradenton International Airport (KSRQ)
Time Latitude Longitude Altitude Speed Heading
2026-04-25 19:23 37.28619 -84.00730 37940 ft 423 kts 184°
2026-04-25 19:24 37.23689 -84.00321 37939 ft 423 kts 184°
2026-04-25 19:25 37.11927 -83.99349 37932 ft 424 kts 184°
2026-04-25 19:25 37.06038 -83.98864 37932 ft 424 kts 185°
2026-04-25 19:26 37.00189 -83.98382 37940 ft 424 kts 185°
2026-04-25 19:26 36.94297 -83.97899 37939 ft 424 kts 185°
2026-04-25 19:27 36.89395 -83.97499 37934 ft 425 kts 185°
2026-04-25 19:27 36.82490 -83.96935 37934 ft 426 kts 185°
2026-04-25 19:28 36.76572 -83.96450 37931 ft 426 kts 185°
2026-04-25 19:28 36.70651 -83.95967 37938 ft 427 kts 185°
2026-04-25 19:29 36.64714 -83.95485 37941 ft 427 kts 185°
2026-04-25 19:29 36.58773 -83.95003 37933 ft 428 kts 185°
2026-04-25 19:30 36.52834 -83.94518 37928 ft 427 kts 185°
2026-04-25 19:30 36.46908 -83.94035 37934 ft 427 kts 185°
2026-04-25 19:31 36.41018 -83.93559 37917 ft 427 kts 185°
2026-04-25 19:31 36.35092 -83.93082 37921 ft 426 kts 185°
2026-04-25 19:32 36.29171 -83.92603 37915 ft 426 kts 185°
2026-04-25 19:32 36.24212 -83.92204 37918 ft 426 kts 185°
2026-04-25 19:33 36.17333 -83.91650 37917 ft 425 kts 185°
2026-04-25 19:33 36.11426 -83.91175 37924 ft 425 kts 185°
2026-04-25 19:34 36.05528 -83.90702 37929 ft 425 kts 185°
2026-04-25 19:34 35.99630 -83.90230 37935 ft 424 kts 185°
2026-04-25 19:35 35.93741 -83.89759 37932 ft 424 kts 185°
2026-04-25 19:35 35.87956 -83.90006 37930 ft 407 kts 199°
2026-04-25 19:36 35.82407 -83.91403 37930 ft 407 kts 199°
2026-04-25 19:36 35.76841 -83.92803 37923 ft 409 kts 199°
2026-04-25 19:37 35.71290 -83.94172 37928 ft 410 kts 199°
2026-04-25 19:37 35.65678 -83.95541 37931 ft 412 kts 199°
2026-04-25 19:38 35.60042 -83.96909 37920 ft 414 kts 199°
2026-04-25 19:38 35.54393 -83.98273 37936 ft 414 kts 199°
2026-04-25 19:39 35.48720 -83.99643 37930 ft 416 kts 199°
2026-04-25 19:39 35.43041 -84.01005 37940 ft 416 kts 199°
2026-04-25 19:40 35.37360 -84.02373 37944 ft 416 kts 199°
2026-04-25 19:40 35.31710 -84.03738 37943 ft 417 kts 199°
2026-04-25 19:41 35.26017 -84.05113 37932 ft 417 kts 199°
2026-04-25 19:41 35.21237 -84.06255 37940 ft 418 kts 199°
2026-04-25 19:42 35.14618 -84.07840 37959 ft 416 kts 199°
2026-04-25 19:42 35.08926 -84.09204 37955 ft 417 kts 199°
2026-04-25 19:43 35.03236 -84.10560 37950 ft 417 kts 199°
2026-04-25 19:43 34.97564 -84.11914 37950 ft 418 kts 199°
2026-04-25 19:44 34.91862 -84.13266 37964 ft 417 kts 199°
2026-04-25 19:44 34.86147 -84.14629 37956 ft 419 kts 199°
2026-04-25 19:45 34.80408 -84.15994 37943 ft 421 kts 199°
2026-04-25 19:45 34.74634 -84.17365 37959 ft 423 kts 199°
2026-04-25 19:46 34.68846 -84.18736 37946 ft 425 kts 199°
2026-04-25 19:46 34.63026 -84.20111 37957 ft 427 kts 199°
2026-04-25 19:47 34.57182 -84.21493 37945 ft 428 kts 198°
2026-04-25 19:47 34.51321 -84.22879 37937 ft 429 kts 199°
2026-04-25 19:48 34.45460 -84.24262 37929 ft 430 kts 198°
2026-04-25 19:48 34.39584 -84.25641 37936 ft 430 kts 198°
2026-04-25 19:49 34.35699 -84.26550 37933 ft 429 kts 199°
2026-04-25 19:49 34.27885 -84.28384 37926 ft 430 kts 199°
2026-04-25 19:50 34.19074 -84.30447 37923 ft 429 kts 199°
2026-04-25 19:51 34.13215 -84.31816 37929 ft 429 kts 199°
2026-04-25 19:51 34.07349 -84.33185 37925 ft 430 kts 199°
2026-04-25 19:52 34.01472 -84.34558 37926 ft 430 kts 199°
2026-04-25 19:52 33.95587 -84.35930 37937 ft 431 kts 198°
2026-04-25 19:53 33.89732 -84.37289 37938 ft 432 kts 198°
2026-04-25 19:53 33.83801 -84.38663 37934 ft 431 kts 198°
2026-04-25 19:54 33.77952 -84.40019 37924 ft 431 kts 198°
2026-04-25 19:54 33.72055 -84.41386 37924 ft 431 kts 198°
2026-04-25 19:55 33.66167 -84.42748 37932 ft 431 kts 198°
2026-04-25 19:55 33.60154 -84.43582 37935 ft 443 kts 187°
2026-04-25 19:56 33.53975 -84.43413 37939 ft 445 kts 186°
2026-04-25 19:56 33.47775 -84.43219 37929 ft 445 kts 186°
2026-04-25 19:57 33.41584 -84.43064 37933 ft 445 kts 186°
2026-04-25 19:57 33.35402 -84.42932 37934 ft 444 kts 186°
2026-04-25 19:58 33.29227 -84.42809 37935 ft 443 kts 186°
2026-04-25 19:58 33.23059 -84.42681 37931 ft 443 kts 186°
2026-04-25 19:59 33.16889 -84.42557 37930 ft 444 kts 186°
2026-04-25 19:59 33.10704 -84.42428 37926 ft 445 kts 186°
2026-04-25 20:00 33.04507 -84.42303 37926 ft 446 kts 186°
2026-04-25 20:00 32.98290 -84.42176 37929 ft 447 kts 186°
2026-04-25 20:01 32.88940 -84.41991 37936 ft 449 kts 186°
2026-04-25 20:01 32.82693 -84.41862 37940 ft 449 kts 186°
2026-04-25 20:02 32.76470 -84.41736 37930 ft 451 kts 186°
2026-04-25 20:02 32.70192 -84.41610 37921 ft 452 kts 186°
2026-04-25 20:03 32.63887 -84.41483 37924 ft 454 kts 186°
2026-04-25 20:03 32.57556 -84.41354 37921 ft 455 kts 186°
2026-04-25 20:04 32.51214 -84.41221 37912 ft 456 kts 185°
2026-04-25 20:04 32.44860 -84.41094 37910 ft 457 kts 185°
2026-04-25 20:05 32.38497 -84.40969 37900 ft 458 kts 185°
2026-04-25 20:05 32.32114 -84.40847 37897 ft 459 kts 185°
2026-04-25 20:06 32.25719 -84.40721 37889 ft 460 kts 185°
2026-04-25 20:06 32.19305 -84.40589 37889 ft 461 kts 185°
2026-04-25 20:07 32.12930 -84.40460 37885 ft 462 kts 185°
2026-04-25 20:07 32.06507 -84.40328 37890 ft 462 kts 185°
2026-04-25 20:08 32.00076 -84.40199 37870 ft 463 kts 185°
2026-04-25 20:08 31.93637 -84.40073 37879 ft 463 kts 185°
2026-04-25 20:09 31.87196 -84.39946 37881 ft 463 kts 185°
2026-04-25 20:09 31.80760 -84.39818 37882 ft 463 kts 185°
2026-04-25 20:10 31.74319 -84.39690 37887 ft 463 kts 185°
2026-04-25 20:10 31.67875 -84.39563 37875 ft 463 kts 185°
2026-04-25 20:11 31.61446 -84.39465 37884 ft 461 kts 186°
2026-04-25 20:11 31.55038 -84.39481 37889 ft 460 kts 186°
2026-04-25 20:12 31.49720 -84.39508 37890 ft 459 kts 186°
2026-04-25 20:12 31.44406 -84.39528 37887 ft 459 kts 186°
2026-04-25 20:13 31.36947 -84.39543 37898 ft 459 kts 186°
2026-04-25 20:13 31.30557 -84.39551 37898 ft 459 kts 185°
2026-04-25 20:14 31.24172 -84.39561 37900 ft 459 kts 185°
2026-04-25 20:14 31.17833 -84.39570 37898 ft 459 kts 185°
2026-04-25 20:15 31.11442 -84.39580 37896 ft 459 kts 185°
2026-04-25 20:15 31.05048 -84.39588 37898 ft 460 kts 185°
2026-04-25 20:16 30.98650 -84.39599 37898 ft 460 kts 185°
2026-04-25 20:16 30.92251 -84.39609 37900 ft 460 kts 185°
2026-04-25 20:17 30.85840 -84.39619 37896 ft 460 kts 184°
2026-04-25 20:17 30.79434 -84.39628 37901 ft 461 kts 184°
2026-04-25 20:18 30.73012 -84.39637 37904 ft 461 kts 184°
2026-04-25 20:18 30.66583 -84.39646 37909 ft 462 kts 184°
2026-04-25 20:19 30.60149 -84.39656 37906 ft 463 kts 184°
2026-04-25 20:19 30.53746 -84.39666 37911 ft 463 kts 184°
2026-04-25 20:20 30.47297 -84.39676 37906 ft 464 kts 184°
2026-04-25 20:20 30.40832 -84.39685 37896 ft 465 kts 183°
2026-04-25 20:21 30.34371 -84.39131 37889 ft 471 kts 165°
2026-04-25 20:21 30.31328 -84.37720 37905 ft 474 kts 152°
2026-04-25 20:21 30.28612 -84.35561 37899 ft 476 kts 140°
2026-04-25 20:22 30.24470 -84.31370 37901 ft 476 kts 139°
2026-04-25 20:22 30.18648 -84.25446 37899 ft 477 kts 139°
2026-04-25 20:23 30.13649 -84.20467 37897 ft 477 kts 140°
2026-04-25 20:23 30.08602 -84.15487 37910 ft 477 kts 140°
2026-04-25 20:24 30.03556 -84.10513 37905 ft 477 kts 140°
2026-04-25 20:24 29.98497 -84.05536 37905 ft 477 kts 140°
2026-04-25 20:25 29.93450 -84.00571 37913 ft 477 kts 140°
2026-04-25 20:25 29.88402 -83.95611 37916 ft 476 kts 140°
2026-04-25 20:26 29.83354 -83.90665 37916 ft 476 kts 141°
2026-04-25 20:26 29.77826 -83.86525 37929 ft 474 kts 152°
2026-04-25 20:27 29.72034 -83.82895 37919 ft 474 kts 152°
2026-04-25 20:27 29.66297 -83.79271 37919 ft 474 kts 152°
2026-04-25 20:28 29.60547 -83.75581 37916 ft 473 kts 151°
2026-04-25 20:28 29.54805 -83.71884 37916 ft 473 kts 151°
2026-04-25 20:29 29.49060 -83.68193 37922 ft 473 kts 151°
2026-04-25 20:29 29.43314 -83.64508 37915 ft 473 kts 151°
2026-04-25 20:30 29.37536 -83.60809 37485 ft 481 kts 151°
2026-04-25 20:30 29.34578 -83.59011 36881 ft 481 kts 156°
2026-04-25 20:30 29.31452 -83.57687 36216 ft 478 kts 164°
2026-04-25 20:31 29.28260 -83.56627 35523 ft 477 kts 165°
2026-04-25 20:31 29.25063 -83.55605 34731 ft 478 kts 165°
2026-04-25 20:31 29.21851 -83.54573 33920 ft 480 kts 165°
2026-04-25 20:31 29.18632 -83.53518 33082 ft 482 kts 165°
2026-04-25 20:32 29.15407 -83.52441 32219 ft 484 kts 164°
2026-04-25 20:32 29.12168 -83.51347 31316 ft 485 kts 165°
2026-04-25 20:32 29.08954 -83.50258 30483 ft 478 kts 164°
2026-04-25 20:32 29.05787 -83.49184 29873 ft 472 kts 164°
2026-04-25 20:33 29.02643 -83.48121 29232 ft 469 kts 164°
2026-04-25 20:33 28.99523 -83.47070 28599 ft 466 kts 164°
2026-04-25 20:33 28.96452 -83.45910 27961 ft 463 kts 158°
2026-04-25 20:33 28.94498 -83.44941 27566 ft 461 kts 156°
2026-04-25 20:34 28.90658 -83.42932 26749 ft 456 kts 155°
2026-04-25 20:34 28.87793 -83.41411 26127 ft 453 kts 155°
2026-04-25 20:34 28.84944 -83.39904 25508 ft 450 kts 155°
2026-04-25 20:34 28.82109 -83.38418 24892 ft 446 kts 156°
2026-04-25 20:35 28.79296 -83.36956 24283 ft 443 kts 156°
2026-04-25 20:35 28.76506 -83.35514 23675 ft 439 kts 156°
2026-04-25 20:35 28.73723 -83.34079 23067 ft 436 kts 156°
2026-04-25 20:35 28.70972 -83.32662 22461 ft 433 kts 156°
2026-04-25 20:36 28.68238 -83.31254 21853 ft 429 kts 156°
2026-04-25 20:36 28.65528 -83.29859 21262 ft 427 kts 157°
2026-04-25 20:36 28.62830 -83.28472 20673 ft 423 kts 157°
2026-04-25 20:36 28.60155 -83.27098 20072 ft 420 kts 157°
2026-04-25 20:37 28.57496 -83.25732 19488 ft 417 kts 157°
2026-04-25 20:37 28.54862 -83.24379 18907 ft 414 kts 157°
2026-04-25 20:37 28.52244 -83.23036 18333 ft 411 kts 158°
2026-04-25 20:37 28.49645 -83.21703 17749 ft 408 kts 158°
2026-04-25 20:38 28.47067 -83.20380 17173 ft 405 kts 158°
2026-04-25 20:38 28.44512 -83.19069 16603 ft 401 kts 158°
2026-04-25 20:38 28.41972 -83.17769 16069 ft 398 kts 158°
2026-04-25 20:38 28.39461 -83.16484 15513 ft 395 kts 158°
2026-04-25 20:39 28.36957 -83.15220 14952 ft 392 kts 158°
2026-04-25 20:39 28.34469 -83.13980 14404 ft 389 kts 158°
2026-04-25 20:39 28.32003 -83.12753 13865 ft 385 kts 158°
2026-04-25 20:39 28.30379 -83.11945 13506 ft 383 kts 158°
2026-04-25 20:40 28.27247 -83.10068 12895 ft 378 kts 146°
2026-04-25 20:40 28.25244 -83.08211 12718 ft 368 kts 139°
2026-04-25 20:40 28.23361 -83.06321 12533 ft 365 kts 139°
2026-04-25 20:40 28.21420 -83.04435 12346 ft 370 kts 144°
2026-04-25 20:41 28.19172 -83.03030 12143 ft 370 kts 162°
2026-04-25 20:41 28.16676 -83.02400 11957 ft 365 kts 178°
2026-04-25 20:41 28.14148 -83.02281 11789 ft 363 kts 180°
2026-04-25 20:41 28.11625 -83.02200 11585 ft 362 kts 180°
2026-04-25 20:42 28.09111 -83.02117 11391 ft 361 kts 180°
2026-04-25 20:42 28.06611 -83.02026 11214 ft 357 kts 180°
2026-04-25 20:42 28.04141 -83.01927 11032 ft 354 kts 179°
2026-04-25 20:42 28.01679 -83.01824 10852 ft 354 kts 179°
2026-04-25 20:43 27.99246 -83.01719 10638 ft 344 kts 179°
2026-04-25 20:43 27.96893 -83.01614 10459 ft 333 kts 179°
2026-04-25 20:43 27.94613 -83.01512 10291 ft 322 kts 179°
2026-04-25 20:43 27.92409 -83.01415 10130 ft 312 kts 179°
2026-04-25 20:44 27.90265 -83.01319 9975 ft 302 kts 179°
2026-04-25 20:44 27.88228 -83.01229 9925 ft 287 kts 179°
2026-04-25 20:44 27.86241 -83.01141 9698 ft 282 kts 179°
2026-04-25 20:44 27.84297 -83.01055 9545 ft 277 kts 179°
2026-04-25 20:45 27.82375 -83.00972 9400 ft 276 kts 179°
2026-04-25 20:45 27.80451 -83.00887 9256 ft 277 kts 178°
2026-04-25 20:45 27.78583 -83.00388 9087 ft 281 kts 151°
2026-04-25 20:45 27.77071 -82.99005 8984 ft 281 kts 134°
2026-04-25 20:46 27.75752 -82.97371 8829 ft 282 kts 133°
2026-04-25 20:46 27.74443 -82.95722 8684 ft 283 kts 133°
2026-04-25 20:46 27.73121 -82.94077 8542 ft 282 kts 133°
2026-04-25 20:46 27.71793 -82.92444 8389 ft 282 kts 133°
2026-04-25 20:47 27.70460 -82.90817 8218 ft 282 kts 133°
2026-04-25 20:47 27.69173 -82.89166 8066 ft 280 kts 127°
2026-04-25 20:47 27.68076 -82.87367 7929 ft 276 kts 123°
2026-04-25 20:47 27.67053 -82.85553 7779 ft 273 kts 123°
2026-04-25 20:48 27.66042 -82.83746 7636 ft 272 kts 123°
2026-04-25 20:48 27.65029 -82.81950 7507 ft 271 kts 123°
2026-04-25 20:48 27.64015 -82.80164 7382 ft 269 kts 123°
2026-04-25 20:48 27.63014 -82.78411 7240 ft 270 kts 123°
2026-04-25 20:49 27.61990 -82.76635 7078 ft 271 kts 124°
2026-04-25 20:49 27.60961 -82.74852 6944 ft 272 kts 124°
2026-04-25 20:49 27.59928 -82.73068 6820 ft 272 kts 124°
2026-04-25 20:49 27.58868 -82.71298 6667 ft 274 kts 126°
2026-04-25 20:50 27.57834 -82.69508 6522 ft 271 kts 123°
2026-04-25 20:50 27.56802 -82.67696 6381 ft 271 kts 124°
2026-04-25 20:50 27.55794 -82.65951 6251 ft 269 kts 124°
2026-04-25 20:50 27.54770 -82.64186 6104 ft 268 kts 124°
2026-04-25 20:51 27.53750 -82.62433 5975 ft 267 kts 124°
2026-04-25 20:51 27.52730 -82.60681 5841 ft 267 kts 124°
2026-04-25 20:51 27.51711 -82.58932 5704 ft 267 kts 124°
2026-04-25 20:51 27.50695 -82.57189 5563 ft 267 kts 124°
2026-04-25 20:52 27.49676 -82.55441 5410 ft 266 kts 124°
2026-04-25 20:52 27.49003 -82.54287 5335 ft 266 kts 124°
2026-04-25 20:52 27.47666 -82.51994 5101 ft 254 kts 124°
2026-04-25 20:52 27.46722 -82.50380 5020 ft 239 kts 125°
2026-04-25 20:53 27.45700 -82.48974 5005 ft 228 kts 134°
2026-04-25 20:53 27.44611 -82.47717 5004 ft 221 kts 135°
2026-04-25 20:53 27.43532 -82.46492 5002 ft 218 kts 136°
2026-04-25 20:53 27.42487 -82.45296 4925 ft 210 kts 135°
2026-04-25 20:54 27.41476 -82.44134 4663 ft 206 kts 135°
2026-04-25 20:54 27.40480 -82.42983 4365 ft 203 kts 135°
2026-04-25 20:54 27.39530 -82.41881 4177 ft 192 kts 135°
2026-04-25 20:54 27.38636 -82.40840 4002 ft 178 kts 135°
2026-04-25 20:55 27.37779 -82.39840 3654 ft 178 kts 135°
2026-04-25 20:55 27.36921 -82.38840 3303 ft 177 kts 135°
2026-04-25 20:55 27.36073 -82.37851 2953 ft 175 kts 135°
2026-04-25 20:55 27.35230 -82.36865 2588 ft 175 kts 135°
2026-04-25 20:56 27.34356 -82.35918 2191 ft 174 kts 150°
2026-04-25 20:56 27.33212 -82.35733 1885 ft 179 kts 205°
2026-04-25 20:56 27.32306 -82.36565 1889 ft 159 kts 226°
2026-04-25 20:56 27.31570 -82.37407 1815 ft 143 kts 226°
2026-04-25 20:57 27.30879 -82.38193 1806 ft 141 kts 226°
2026-04-25 20:57 27.30279 -82.39042 1812 ft 140 kts 238°
2026-04-25 20:57 27.29885 -82.40034 1807 ft 138 kts 254°
2026-04-25 20:57 27.29758 -82.41104 1816 ft 140 kts 268°
2026-04-25 20:58 27.29866 -82.42193 1816 ft 140 kts 280°
2026-04-25 20:58 27.30160 -82.43247 1805 ft 143 kts 289°
2026-04-25 20:58 27.30537 -82.44274 1814 ft 142 kts 287°
2026-04-25 20:58 27.30980 -82.45269 1809 ft 143 kts 302°
2026-04-25 20:59 27.31588 -82.46167 1806 ft 145 kts 304°
2026-04-25 20:59 27.32227 -82.47042 1805 ft 145 kts 308°
2026-04-25 20:59 27.32920 -82.47882 1691 ft 148 kts 310°
2026-04-25 20:59 27.33637 -82.48715 1484 ft 148 kts 310°
2026-04-25 21:00 27.34354 -82.49532 1245 ft 147 kts 311°
2026-04-25 21:00 27.34597 -82.49806 1185 ft 147 kts 309°
2026-04-25 21:00 27.36220 -82.51726 858 ft 148 kts 309°
2026-04-25 21:01 27.36969 -82.52572 642 ft 151 kts 311°
2026-04-25 21:01 27.37703 -82.53392 398 ft 148 kts 308°
2026-04-25 21:01 27.38412 -82.54218 166 ft 146 kts 310°
2026-04-25 21:01 27.39111 -82.55019 34 ft 137 kts 312°
2026-04-25 21:02 27.39675 -82.55670 29 ft 87 kts 313°
2026-04-25 21:02 27.39941 -82.55972 27 ft 22 kts 309°
2026-04-25 21:02 27.39897 -82.56043 29 ft 14 kts 179°
2026-04-25 21:02 27.39815 -82.55999 29 ft 13 kts 133°
2026-04-25 21:03 27.39754 -82.55926 30 ft 13 kts 134°
2026-04-25 21:03 27.39687 -82.55848 29 ft 16 kts 134°
2026-04-25 21:03 27.39595 -82.55744 30 ft 22 kts 135°
2026-04-25 21:03 27.39476 -82.55612 30 ft 26 kts 135°
2026-04-25 21:04 27.39341 -82.55456 29 ft 28 kts 135°
2026-04-25 21:04 27.39255 -82.55395 30 ft 14 kts 186°
2026-04-25 21:04 27.39174 -82.55456 30 ft 14 kts 215°
2026-04-25 21:04 27.39102 -82.55523 29 ft 13 kts 221°
2026-04-25 21:05 27.39028 -82.55582 29 ft 13 kts 212°
2026-04-25 21:05 27.38949 -82.55570 28 ft 12 kts 138°
2026-04-25 21:05 27.38898 -82.55494 30 ft 12 kts 104°
2026-04-25 21:05 27.38900 -82.55443 29 ft 3 kts 83°
2026-04-25 21:06 27.38901 -82.55434 30 ft 0 kts 84°
2026-04-25 21:06 27.38901 -82.55431 30 ft 0 kts 84°